[[[{"header":{"parameterUnit":"kt","parameterCategory":2,"dx":1,"dy":1,"la1":30.253999710083008,"la2":30.299108505249023,"lo1":-89.0895004272461,"lo2":-89.04439544677734,"nx":28,"ny":28,"refTime":"2022-09-27T21:00:00:Z","depth":0,"parameterNumber":1,"parameterNumberName":"U-component_of_WINDS"},"data":[-3.1381,-3.1457,-3.1466,-3.1557,-3.158,-3.1643,-3.1668,-3.1701,-3.1729,-3.1803,-3.1847,-3.1863,-3.1893,-3.1947,-3.1994,-3.1999,-3.2019,-3.2039,-3.2042,-3.1946,-3.1933,-3.1921,-3.1904,-3.2043,-3.2043,-3.214,-3.2141,-3.2142,-3.1306,-3.133,-3.1381,-3.1437,-3.148,-3.1466,-3.1508,-3.1545,-3.1601,-3.1636,-3.1681,-3.1747,-3.1799,-3.1824,-3.1876,-3.191,-3.1906,-3.1923,-3.1921,-3.1926,-3.1824,-3.1806,-3.1925,-3.1925,-3.1925,-3.1925,-3.1925,-3.1925,-3.1173,-3.1218,-3.1258,-3.1313,-3.1344,-3.138,-3.1425,-3.1444,-3.1493,-3.155,-3.1551,-3.1614,-3.1651,-3.1718,-3.1742,-3.1791,-3.1773,-3.1795,-3.1801,-3.1806,-3.1811,-3.1668,-3.18,-3.18,-3.18,-3.1799,-3.1799,0,-3.1078,-3.1083,-3.1133,-3.1186,-3.1227,-3.1268,-3.1308,-3.1335,-3.1348,-3.1388,-3.1446,-3.1481,-3.155,-3.1605,-3.1656,-3.1678,-3.1667,-3.1667,-3.1682,-3.1683,-3.1676,-3.1681,-3.1513,-3.1663,-3.1662,-3.1661,-3.1661,-3.166,-3.0944,-3.0997,-3.1043,-3.1077,-3.1101,-3.1156,-3.119,-3.1197,-3.1233,-3.1282,-3.1321,-3.1377,-3.1423,-3.1514,-3.1536,-3.1587,-3.1582,-3.1638,-3.159,-3.1588,-3.1583,-3.158,-3.1585,-3.1648,-3.165,-3.1651,-3.1652,0,-3.0867,-3.0883,-3.0968,-3.1009,-3.1021,-3.1075,-3.1109,-3.1155,-3.1169,-3.1234,-3.1249,-3.1271,-3.1328,-3.1341,-3.1409,-3.1413,-3.15,-3.1495,-3.1487,-3.1487,-3.1538,-3.1534,-3.1705,-3.1727,-3.1584,-3.1585,-3.1586,0,-3.076,-3.0829,-3.0848,-3.0897,-3.0973,-3.098,-3.1055,-3.1075,-3.1108,-3.1159,-3.115,-3.1198,-3.1207,-3.1256,-3.1263,-3.1337,-3.1349,-3.1357,-3.1359,-3.1359,-3.1358,-3.1379,-3.1372,-3.136,-3.1359,-3.1358,-3.1357,0,-3.0639,-3.0731,-3.081,-3.0834,-3.0885,-3.0921,-3.0944,-3.0982,-3.1016,-3.1061,-3.1083,-3.1135,-3.1164,-3.1204,-3.1213,-3.1179,-3.1303,-3.1259,-3.1311,-3.1311,-3.1339,-3.1338,-3.1485,-3.1356,-3.1356,-3.1356,-3.1355,0,-3.0555,-3.0603,-3.0716,-3.0758,-3.0782,-3.0833,-3.0886,-3.0934,-3.0974,-3.0983,-3.1019,-3.1015,-3.1081,-3.1036,-3.1126,-3.108,-3.1108,-3.1122,-3.1126,-3.1134,-3.1084,-3.1166,-3.1304,-3.1319,-3.1139,-3.1137,-3.1135,0,-3.0413,-3.0531,-3.0539,-3.0645,-3.0702,-3.0688,-3.0746,-3.0783,-3.0799,-3.0848,-3.0866,-3.0922,-3.0892,-3.0912,-3.0954,-3.0975,-3.1035,-3.0967,-3.1037,-3.1039,-3.1027,-3.1154,-3.1172,-3.1272,-3.1112,-3.1115,-3.1116,0,-3.0305,-3.0369,-3.0387,-3.0415,-3.0466,-3.0514,-3.058,-3.0638,-3.0671,-3.0714,-3.0769,-3.0848,-3.0829,-3.0862,-3.0864,-3.0908,-3.0994,-3.0882,-3.0883,-3.0901,-3.1102,-3.1119,-3.1135,-3.0986,-3.0989,-3.0991,-3.1098,0,-3.0175,-3.0237,-3.0288,-3.035,-3.0389,-3.0457,-3.0474,-3.0512,-3.0511,-3.0527,-3.0609,-3.0644,-3.0703,-3.0726,-3.0726,-3.0823,-3.0809,-3.0788,-3.0747,-3.083,-3.0866,-3.088,-3.0692,-3.0691,-3.069,-3.0689,0,0,-3.0034,-3.0124,-3.0132,-3.0198,-3.0231,-3.0218,-3.0289,-3.032,-3.0383,-3.0406,-3.0383,-3.0501,-3.0531,-3.0629,-3.0656,-3.068,-3.0699,-3.067,-3.079,-3.0801,-3.0812,-3.085,-3.0865,-3.0687,-3.0687,-3.0686,-3.0686,0,-2.9991,-3.0023,-3.0095,-3.0127,-3.0176,-3.0191,-3.0208,-3.0254,-3.0268,-3.0349,-3.0337,-3.0388,-3.0483,-3.0516,-3.0546,-3.0658,-3.0646,-3.0675,-3.073,-3.078,-3.0792,-3.0803,-3.0843,-3.0857,-3.0684,-3.0684,-3.0684,0,-2.9888,-2.9923,-2.9959,-3.0036,-3.0069,-3.0128,-3.0088,-3.0152,-3.0196,-3.0179,-3.026,-3.0282,-3.0328,-3.0418,-3.046,-3.044,-3.0598,-3.0551,-3.0558,-3.0563,-3.0612,-3.0627,-3.0641,-3.0465,-3.0464,-3.0464,0,0,-2.9848,-2.9907,-2.9947,-3.0028,-3.0049,-3.0073,-3.0106,-3.011,-3.0152,-3.0169,-3.0198,-3.0239,-3.0294,-3.0331,-3.0384,-3.0481,-3.0491,-3.0524,-3.0534,-3.0542,-3.0552,-3.0604,-3.0619,-3.046,-3.046,-3.046,0,0,-2.9829,-2.988,-2.9872,-2.9969,-3.001,-3.0055,-3.0104,-3.0095,-3.0145,-3.0139,-3.0148,-3.0159,-3.0244,-3.0267,-3.0223,-3.0369,-3.0328,-3.0339,-3.0352,-3.0365,-3.0375,-3.0369,-3.0188,0,0,0,0,0,-2.9795,-2.9873,-2.9866,-2.9885,-2.9983,-3.0059,-3.0072,-3.0081,-3.0051,-3.0089,-3.0111,-3.0097,-3.0244,-3.0206,-3.0224,-3.0274,-3.042,-3.0427,-3.0434,-3.0474,-3.0488,-3.0499,0,0,0,0,0,0,-2.9802,-2.9825,-2.9864,-2.9912,-2.9934,-3.0056,-3.0008,-3.0012,-3.0047,-3.0043,-3.0093,-3.0099,-3.0108,-3.0197,-3.0213,-3.026,-3.0182,-3.0423,-3.0429,-3.0434,-3.0479,-3.049,-3.0499,0,0,0,0,0,-2.9808,-2.9827,-2.9982,-2.9911,-2.993,-2.9961,-3.0005,-3.0008,-3.0035,-3.0071,-3.0076,-3.0039,-3.0109,-3.0123,-3.0207,-3.0253,-3.0171,-3.0177,-3.0427,-3.0432,-3.0436,-3.0484,0,0,0,0,0,0,-2.9813,-2.983,-2.9986,-2.9993,-2.9883,-2.9955,-2.9966,-3.0005,-3.0061,-3.0067,-3.0017,-3.0014,-3.0111,-3.0122,-3.0133,-3.0249,-3.0162,-3.0168,-3.0172,-3.043,-3.0434,-3.0438,0,0,0,0,0,0,-2.982,-2.9836,-2.999,-2.9953,-2.9955,-2.9949,-2.9959,-3.0031,-3.0062,-3.0004,-3.0003,-3.0015,-3.0094,-3.0121,-3.0129,-3.0242,-3.0155,-3.0161,-3.0165,-3.0168,-3.0434,-3.0436,0,0,0,0,0,0,-2.9827,-2.984,-2.9952,-2.9953,-2.9955,-3.0025,-3.0013,-3.0113,-3.0031,-3.0002,-3.0024,-3.0021,-3.0093,-3.0102,-3.0127,-3.0236,-3.024,-3.0155,-3.0159,-3.0162,-3.0164,0,0,0,0,0,0,0,-2.9832,-2.9742,-2.995,-2.9953,-2.9955,-3.0049,-3.0051,-3.0053,-3.0031,-3.0028,-3.0025,-3.0022,-3.0121,-3.0128,-3.0134,-3.0232,0,0,-3.0155,-3.0157,0,0,0,0,0,0,0,0,-2.9737,-2.9741,-2.995,-2.9951,-2.9953,-3.005,-3.0051,-3.0052,-3.003,-3.0028,-3.0026,-3.0024,-3.0123,-3.0128,-3.0134,0,0,0,0,0,0,0,0,0,0,0,0,0,0,0,-2.995,-2.9951,0,-3.005,-3.0051,-3.0052,-3.003,-3.0028,-3.0026,-3.0024,-3.0125,-3.0129,-3.0133,0,0,0,0,0,0,0,0,0,0,0,0,0,0,0,0,0,0,0,0,0,0,0,0,0,0,0,0,0,0,0,0,0,0,0,0,0,0,0,0,0,0,0,0,0,0,0,0,0,0,0,0,0,0,0,0,0,0,0,0,0,0,0,0,0,0,0,0,0]}],[{"header":{"parameterUnit":"kt","parameterCategory":2,"dx":1,"dy":1,"la1":30.253999710083008,"la2":30.299108505249023,"lo1":-89.0895004272461,"lo2":-89.04439544677734,"nx":28,"ny":28,"refTime":"2022-09-27T21:00:00:Z","depth":0,"parameterNumber":2,"parameterNumberName":"V-component_of_WINDS"},"data":[-16.41,-16.4266,-16.4261,-16.4445,-16.447,-16.4594,-16.4635,-16.4687,-16.4726,-16.4869,-16.4949,-16.4955,-16.4986,-16.5076,-16.5159,-16.5158,-16.5194,-16.5259,-16.5247,-16.4966,-16.4926,-16.4888,-16.485,-16.5268,-16.5268,-16.5539,-16.5542,-16.5544,-16.3899,-16.3927,-16.4024,-16.4112,-16.4193,-16.4127,-16.4189,-16.4261,-16.4371,-16.4419,-16.4496,-16.462,-16.4714,-16.4722,-16.4809,-16.4882,-16.4853,-16.4906,-16.49,-16.4905,-16.4605,-16.4565,-16.4929,-16.4928,-16.4928,-16.4928,-16.4928,-16.4928,-16.3531,-16.363,-16.368,-16.3783,-16.3825,-16.3882,-16.3974,-16.398,-16.407,-16.4164,-16.4134,-16.4256,-16.4298,-16.4397,-16.4426,-16.4519,-16.4457,-16.451,-16.4523,-16.4537,-16.4555,-16.4167,-16.4532,-16.4531,-16.453,-16.4529,-16.4529,0,-16.3258,-16.3247,-16.3337,-16.3426,-16.35,-16.3567,-16.3625,-16.3681,-16.3645,-16.372,-16.3828,-16.3887,-16.4002,-16.4099,-16.4177,-16.4194,-16.4127,-16.4119,-16.4155,-16.4173,-16.418,-16.4178,-16.3689,-16.4107,-16.4104,-16.4101,-16.4099,-16.4098,-16.2886,-16.3002,-16.3048,-16.3112,-16.3142,-16.3246,-16.3305,-16.3264,-16.3328,-16.3391,-16.3477,-16.3574,-16.365,-16.3818,-16.3816,-16.39,-16.3868,-16.4029,-16.3879,-16.3893,-16.387,-16.3864,-16.3875,-16.4059,-16.4064,-16.4068,-16.4071,0,-16.2677,-16.2663,-16.2838,-16.287,-16.2882,-16.3004,-16.3029,-16.3123,-16.3116,-16.3244,-16.3271,-16.3259,-16.3362,-16.3334,-16.3443,-16.3425,-16.3622,-16.3588,-16.3608,-16.3599,-16.3741,-16.3728,-16.4205,-16.4265,-16.3832,-16.3836,-16.384,0,-16.2352,-16.2505,-16.2474,-16.2577,-16.2744,-16.2699,-16.2865,-16.2874,-16.291,-16.3011,-16.2932,-16.3027,-16.2975,-16.3066,-16.3039,-16.3194,-16.3214,-16.3208,-16.3199,-16.3216,-16.3216,-16.3245,-16.3224,-16.3174,-16.3171,-16.3169,-16.3167,0,-16.2026,-16.2187,-16.2353,-16.2387,-16.2433,-16.2512,-16.2534,-16.2572,-16.2628,-16.2696,-16.2732,-16.2813,-16.2857,-16.292,-16.2885,-16.2785,-16.3073,-16.2927,-16.3067,-16.3069,-16.3131,-16.3128,-16.3559,-16.3164,-16.3163,-16.3163,-16.3162,0,-16.176,-16.1835,-16.2078,-16.2115,-16.2158,-16.2266,-16.2345,-16.2431,-16.2476,-16.2467,-16.2519,-16.2461,-16.2594,-16.2452,-16.2634,-16.2513,-16.2561,-16.2567,-16.2577,-16.2585,-16.2427,-16.2673,-16.3088,-16.313,-16.2596,-16.2591,-16.2587,0,-16.1392,-16.1632,-16.1595,-16.1826,-16.1932,-16.1837,-16.1956,-16.1998,-16.1996,-16.2083,-16.2077,-16.2176,-16.2064,-16.209,-16.2184,-16.2181,-16.2338,-16.2159,-16.2282,-16.2287,-16.2274,-16.2655,-16.2723,-16.3001,-16.2526,-16.2533,-16.2537,0,-16.1103,-16.1159,-16.1202,-16.1238,-16.1289,-16.1376,-16.1512,-16.1601,-16.1662,-16.1716,-16.1828,-16.1964,-16.1885,-16.1929,-16.1888,-16.1988,-16.2231,-16.1888,-16.1888,-16.1951,-16.2493,-16.2558,-16.2605,-16.2181,-16.2188,-16.2194,-16.2489,0,-16.0706,-16.0823,-16.094,-16.102,-16.1083,-16.1225,-16.1196,-16.1266,-16.1222,-16.1215,-16.1377,-16.14,-16.1486,-16.153,-16.1486,-16.1724,-16.1678,-16.1592,-16.1449,-16.17,-16.1796,-16.1835,-16.1309,-16.1304,-16.1301,-16.1298,0,0,-16.0356,-16.0522,-16.0475,-16.0606,-16.0656,-16.0553,-16.0707,-16.0742,-16.0816,-16.0852,-16.0773,-16.0969,-16.099,-16.1189,-16.1265,-16.1299,-16.1338,-16.125,-16.1581,-16.1613,-16.1642,-16.1746,-16.1787,-16.1291,-16.129,-16.1288,-16.1287,0,-16.0205,-16.0235,-16.0389,-16.0425,-16.0476,-16.0461,-16.0499,-16.0529,-16.053,-16.0689,-16.0597,-16.069,-16.0846,-16.0881,-16.0919,-16.1227,-16.115,-16.1255,-16.1432,-16.1545,-16.1581,-16.1614,-16.1723,-16.1763,-16.1278,-16.1279,-16.1279,0,-15.9915,-15.994,-16.0011,-16.012,-16.0151,-16.0262,-16.0107,-16.0229,-16.0309,-16.0184,-16.0341,-16.035,-16.0392,-16.0584,-16.0668,-16.0598,-16.0982,-16.0854,-16.0876,-16.0884,-16.0991,-16.1036,-16.1075,-16.0557,-16.0554,-16.0552,0,0,-15.9787,-15.9895,-15.9906,-16.0085,-16.0112,-16.009,-16.0145,-16.0106,-16.0149,-16.0167,-16.0175,-16.0217,-16.0307,-16.0367,-16.0449,-16.0664,-16.0668,-16.0766,-16.08,-16.0828,-16.0851,-16.0966,-16.101,-16.0543,-16.0543,-16.0543,0,0,-15.9725,-15.9746,-15.9695,-15.99,-15.9946,-15.9965,-16.0074,-16.0011,-16.0082,-16.0062,-15.9998,-16.0006,-16.0184,-16.0194,-16.0079,-16.0397,-16.0257,-16.0283,-16.0384,-16.0426,-16.046,-16.0453,-15.9919,0,0,0,0,0,-15.9554,-15.9743,-15.9697,-15.9727,-15.9862,-15.9992,-16.0008,-15.9962,-15.9865,-15.9953,-15.9949,-15.9863,-16.0119,-16.0016,-16.0045,-16.0173,-16.0428,-16.0449,-16.0468,-16.0648,-16.0693,-16.073,0,0,0,0,0,0,-15.9566,-15.9602,-15.9692,-15.972,-15.975,-15.9984,-15.9809,-15.9802,-15.9854,-15.9836,-15.9867,-15.9864,-15.9825,-15.9998,-16.0025,-16.0147,-15.991,-16.0436,-16.0453,-16.0469,-16.0663,-16.07,-16.0731,0,0,0,0,0,-15.9574,-15.9604,-15.9833,-15.9717,-15.9743,-15.9727,-15.9802,-15.9794,-15.9833,-15.9827,-15.9822,-15.9794,-15.983,-15.9848,-16.0013,-16.0136,-15.9892,-15.9902,-16.0447,-16.0461,-16.0473,-16.0681,0,0,0,0,0,0,-15.9581,-15.9596,-15.9837,-15.9843,-15.9642,-15.9713,-15.9723,-15.9788,-15.9819,-15.9817,-15.975,-15.9735,-15.9836,-15.9849,-15.9864,-16.0136,-15.9876,-15.9887,-15.9893,-16.0458,-16.0468,-16.0478,0,0,0,0,0,0,-15.958,-15.9602,-15.984,-15.9748,-15.9743,-15.97,-15.9709,-15.9841,-15.9821,-15.974,-15.9728,-15.9743,-15.9811,-15.9851,-15.9862,-16.0069,-15.9865,-15.9874,-15.9881,-15.9886,-16.0467,-16.0475,0,0,0,0,0,0,-15.9588,-15.9608,-15.9746,-15.9742,-15.9737,-15.9801,-15.9815,-15.9954,-15.9747,-15.974,-15.9726,-15.9717,-15.9815,-15.9825,-15.9861,-16.0064,-16.0068,-15.9865,-15.9872,-15.9876,-15.9879,0,0,0,0,0,0,0,-15.9595,-15.948,-15.9802,-15.9737,-15.9733,-15.9898,-15.99,-15.9902,-15.9745,-15.9737,-15.9728,-15.9721,-15.9809,-15.9819,-15.983,-16.006,0,0,-15.9864,-15.9869,0,0,0,0,0,0,0,0,-15.947,-15.9477,-15.9802,-15.9803,-15.9805,-15.9899,-15.99,-15.9901,-15.9743,-15.9737,-15.973,-15.9724,-15.9812,-15.982,-15.9829,0,0,0,0,0,0,0,0,0,0,0,0,0,0,0,-15.9802,-15.9803,0,-15.9899,-15.99,-15.9901,-15.9742,-15.9737,-15.9732,-15.9726,-15.9814,-15.9821,-15.9828,0,0,0,0,0,0,0,0,0,0,0,0,0,0,0,0,0,0,0,0,0,0,0,0,0,0,0,0,0,0,0,0,0,0,0,0,0,0,0,0,0,0,0,0,0,0,0,0,0,0,0,0,0,0,0,0,0,0,0,0,0,0,0,0,0,0,0,0,0]}]]]